Weather in Katunino

Russia / Arkhangel'skaya Oblast'     64°23′28″N   40°37′41″E
temp.,
°C
wind,
m/s
gust,
m/s
humid.,
%
clouds,
%
prec.,
mm/h
press.,
hPa
HPBL,
m
3 august, tue
tue300:00+15sse2391100 0.0 100455
03:00+13ese27988 0.0 1003147
06:00+16ese41282100 0.0 1000482
09:00+16ese51594100 1.1 998792
12:00+17se61496100 1.8 9951117
15:00+19sse6129111 2.6 994984
18:00+18ssw6137955 1.0 9961372
21:00+17s512710 1.1 9971142
4 august, wed
wed400:00+16s513740 0.0 9981021
03:00+14s5127911 0.0 999962
06:00+14ssw61268100 0.1 10001343
09:00+14ssw61271100 0.1 10011457
12:00+13ssw61274100 0.1 10031457
15:00+13sw61471100 0.3 10051750
18:00+11wsw6137799 0.2 10081528
21:00+9wsw51277100 0.3 10101401
5 august, thu
thu500:00+9wsw51190100 0.2 1010972
03:00+9wsw41195100 1.2 1012779
06:00+10wsw41095100 0.4 1014705
09:00+10w3893100 0.6 1016700
12:00+13wnw467189 0.3 10171072
15:00+15nw465095 0.3 10191280
18:00+15nw355370 0.0 1020740
21:00+9nw117952 0.0 102010
6 august, fri
fri600:00+9wnw0079100 0.0 102110
03:00+10ssw0074100 0.0 102111
06:00+11wsw1170100 0.0 102241
09:00+15w125589 0.0 1022515
12:00+15w115885 0.0 1022384
15:00+19nnw244140 0.0 10211882
18:00+18nnw33475 0.0 1021941
21:00+12nnw22695 0.0 102111
7 august, sat
sat700:00+9nw11775 0.0 102110
03:00+8nw11825 0.0 102210
06:00+11nnw01725 0.0 102261
09:00+17nw12505 0.0 1022651
12:00+20nnw23435 0.0 10211547
15:00+20n324631 0.0 10211527
18:00+20nnw224832 0.0 1020694
21:00+13n227665 0.0 102130